Meath Environmental Platform

Observations for Trim Patrick St

Time AQI Temp °C Hum % Pres Pa CO μg/m³ H₂S μg/m³ NO μg/m³ NO₂ μg/m³ O₃ μg/m³ SO₂ μg/m³ PM1 μg/m³ PM2.5 μg/m³ PM10 μg/m³
Monday 3 August 2026
22:03 3 17.4 78 38,460 0 12.92 0.84 38.2 25.16 0 3.71 6.75 7.43
21:58 4 17.6 77 38,460 0.02 14.83 0.78 48.95 43.54 0.91 3.71 6.15 6.76
21:57 3 17.6 76 38,460 0.01 15.59 0.82 52.44 28.39 0.8 2.86 6.19 6.81
21:56 4 17.6 76 38,460 0 13.6 0.83 44.66 20.05 0.73 3.71 7.57 8.33
21:55 4 17.6 77 38,460 0 14.7 0.66 47.94 30.27 0.82 2.86 7.54 8.29
21:54 4 17.6 77 38,460 0 14.42 0.61 45.75 23.29 0.31 3.71 6.86 7.54
21:53 4 17.7 76 38,460 0 15.49 0.66 38.54 22.24 1.39 2.86 6.16 6.77
21:52 4 17.7 74 38,460 0 16.48 0.73 57.57 62.37 0.76 2.86 7 7.7
21:51 3 17.8 76 38,460 0 16.12 0.44 48.74 32.75 1.38 3.71 7.63 8.39
21:50 4 17.7 74 38,460 0 15.57 0.63 46.16 29.32 0.53 2.86 7 7.7
21:48 4 17.8 76 38,460 0 15.99 0.46 43.73 26.56 0.92 2.86 6.22 6.85
21:47 3 17.8 75 38,460 0 15.81 0.5 57.92 66.68 0.75 2.86 6.99 7.69
21:46 4 17.9 76 38,460 0 14.03 0.5 39.41 24.97 1.02 2.86 6.21 6.83
21:45 4 17.9 75 38,460 0 16.25 0.64 47.58 47.51 1.06 3.71 6.95 7.64
21:44 4 17.9 75 38,460 0 16.78 0.63 49.64 27.49 0.9 2.86 6.28 6.91
21:43 4 17.9 75 38,460 0 17.27 0.58 57.58 39.12 1.31 2.86 6.24 6.87
21:41 4 18 75 38,460 0 15.23 0.77 62.66 9.24 0.95 2.86 7 7.7
21:40 4 18 74 38,460 0 14.37 0.72 50.29 20.89 1.21 2.86 6.3 6.93
21:39 4 18 74 38,460 0 10.59 0.83 42.04 20.08 0.75 2.86 7.03 7.73
21:37 4 18.1 73 38,460 0 14.58 0.82 43.27 34.27 0.75 3.71 7.82 8.6